STARLINK-36438, 67625

Orbit data source: Space-Track

STARLINK-36438, 67625 is a payload satellite owned by SpaceX/Seattle (US) in LEO that was launched on Fri, 30 Jan 2026 UTC via an FALCON 9 launch vehicle from the Air Force Eastern Test Range (AFETR). Payload-class satellites include a variety of spacecraft equipped with specific instruments for various scientific and technological missions. These include communications satellites like Starlink; space stations such as the ISS; scientific satellites like the Hubble; Earth observation satellites from companies like Planet Labs, Umbra, and HawkEye 360; GPS; miniature CubeSats for education and research; and military/defense satellites.

Loading next visibility...
Identifier
67625, 2026-020J
Orbit
LEO
Country
Flag of USUS
Related business
Manufacturer
SpaceX/Seattle
Mission
Operational spacecraft
Bus & Motor
STARLINK V2MO, Unknown motor
Mass
575 kg wet, ~530 kg dry
Launch date (UTC)
2026-01-30 (2 months ago)
Launch vehicle
FALCON 9
Launch site
Air Force Eastern Test Range (AFETR)
Object type
Payload
Rocket body
Debris
Shape & HBR
Unknown shape, 17.7 m
Radar Cross Section
RCS unknown

Expand to show TLE details & history
Last TLE update: 12 hours ago

TLE from 12 hours ago
0 STARLINK-36438
1 67625U 26020J   26104.52522097  .00012264  00000-0  45423-3 0  9997
2 67625  43.0003 297.4508 0001214 248.9875 111.0847 15.27594969 11599
Epoch: 2026-04-14T12:36Z
TLE epoch observation values (Epoch: 2026-04-14T12:36:19.091Z)
Latitude
-0.00002°
Longitude
-94.32899°
Altitude
483.079 km
Speed
7.626 km/s
True Right ascension
19h 49m 48s
True Declination
0° 00' 00"
Sunlit
Object was in daylight at epoch
Visualization orbit readout
Latitude
Unknown
Longitude
Unknown
Altitude
Unknown
Speed
Unknown
Apparent Right ascension
Unknown
Apparent Declination
Unknown
Sunlit
N/A
Visualization observer readout
Local Sidereal Time
07:06:58
Azimuth
Unknown
Elevation
Unknown
Doppler factor
Unknown
Orbital elements
Apogee altitude
485.783 km
Perigee altitude
484.116 km
Semi-major axis
6,863.086 km
Eccentricity
0.00012
Inclination
43.0003°
RAAN
297.4508°
Arg. of periapsis
248.9875°
True anomaly
111.09768°
Mean anomaly
111.0847°
Eccentric anomaly
111.09119°
Mean motion
3.81737 °/min
Orbital period
94.31 mins
BSTAR
0.00045423
Loading maneuver chart data...
Computing Atmospheric mass density...
Loading historical data...
Loading historical data...
Loading historical data...
Loading historical data...
Loading historical data...
Loading historical data...
Loading historical data...

Documentation

Showing up to 5 results
|